When you browse on this site, cookies collect data to enhance your experience and personalize the content and advertising you see.
Visit our Privacy Policy to learn more. By continuing to use the site, you agree to this use of cookies and data.
  • In United Kingdom
  • List of Countries
  • For 7 days
  • Water Temperature
  • Weather Map
  • Weather Widgets
  • user-avatar
    Login

    Hourly Weather Gheorgheni

    Today, 23 September, Monday

    Time Temperature Precipitation Wind Pressure Humidity
    00:00 +8°C° 0 mm 0 mps 689 mmHg 71%
    01:00 +7°C° 0 mm 0 mps 689 mmHg 70%
    02:00 +7°C° 0 mm 0 mps 689 mmHg 70%
    03:00 +7°C° 0 mm 0 mps 689 mmHg 69%
    04:00 +7°C° 0 mm 0 mps 688 mmHg 67%
    05:00 +7°C° 0 mm 0 mps 688 mmHg 66%
    06:00 +8°C° 0 mm 0 mps 688 mmHg 63%
    07:00 +10°C° 0 mm 0 mps 689 mmHg 59%
    08:00 +12°C° 0 mm 0 mps 689 mmHg 55%
    09:00 +14°C° 0 mm 0 mps 689 mmHg 49%
    10:00 +17°C° 0 mm 0 mps 690 mmHg 43%
    11:00 +19°C° 0 mm 0 mps 690 mmHg 37%
    12:00 +19°C° 0 mm 0 mps 690 mmHg 36%
    13:00 +20°C° 0 mm 0 mps 689 mmHg 35%
    14:00 +20°C° 0 mm 0 mps 689 mmHg 34%
    15:00 +21°C° 0 mm 1 mps 689 mmHg 39%
    16:00 +20°C° 0 mm 1 mps 688 mmHg 45%
    17:00 +19°C° 0 mm 1 mps 688 mmHg 51%
    18:00 +16°C° 0 mm 1 mps 688 mmHg 55%
    19:00 +15°C° 0 mm 1 mps 688 mmHg 58%
    20:00 +13°C° 0 mm 1 mps 688 mmHg 62%
    21:00 +13°C° 0 mm 1 mps 688 mmHg 63%
    22:00 +13°C° 0 mm 1 mps 687 mmHg 64%
    23:00 +12°C° 0 mm 1 mps 687 mmHg 66%

    Tomorrow, 24 September, Tuesday

    Time Temperature Precipitation Wind Pressure Humidity
    00:00 +12°C° 0 mm 1 mps 687 mmHg 66%
    01:00 +12°C° 0 mm 1 mps 688 mmHg 66%
    02:00 +12°C° 0 mm 1 mps 688 mmHg 66%
    03:00 +11°C° 0 mm 1 mps 687 mmHg 67%
    04:00 +11°C° 0 mm 1 mps 687 mmHg 67%
    05:00 +11°C° 0 mm 1 mps 687 mmHg 67%
    06:00 +12°C° 0 mm 1 mps 687 mmHg 66%
    07:00 +12°C° 0 mm 1 mps 688 mmHg 65%
    08:00 +13°C° 0 mm 1 mps 688 mmHg 64%
    09:00 +14°C° 0 mm 1 mps 688 mmHg 59%
    10:00 +16°C° 0 mm 1 mps 688 mmHg 54%
    11:00 +18°C° 0 mm 1 mps 689 mmHg 49%
    12:00 +18°C° 0 mm 1 mps 689 mmHg 48%
    13:00 +19°C° 0 mm 1 mps 688 mmHg 48%
    14:00 +18°C° 0 mm 2 mps 688 mmHg 48%
    15:00 +18°C° 0 mm 1 mps 688 mmHg 52%
    16:00 +16°C° 0 mm 1 mps 688 mmHg 56%
    17:00 +16°C° 0 mm 1 mps 687 mmHg 60%
    18:00 +14°C° 0 mm 1 mps 687 mmHg 65%
    19:00 +13°C° 0 mm 1 mps 687 mmHg 69%
    20:00 +12°C° 0 mm 1 mps 687 mmHg 73%
    21:00 +11°C° 0 mm 1 mps 687 mmHg 76%
    22:00 +11°C° 0 mm 1 mps 687 mmHg 79%
    23:00 +9°C° 0 mm 0 mps 687 mmHg 82%

    Day after tomorrow, 25 September, Wednesday

    Time Temperature Precipitation Wind Pressure Humidity
    00:00 +9°C° 0 mm 0 mps 687 mmHg 84%
    01:00 +9°C° 0 mm 0 mps 687 mmHg 86%
    02:00 +8°C° 0 mm 0 mps 687 mmHg 88%
    03:00 +8°C° 0 mm 0 mps 687 mmHg 88%
    04:00 +8°C° 0 mm 0 mps 687 mmHg 87%
    05:00 +9°C° 0 mm 0 mps 687 mmHg 87%
    06:00 +10°C° 0 mm 0 mps 687 mmHg 83%
    07:00 +11°C° 0 mm 0 mps 687 mmHg 79%
    08:00 +12°C° 0 mm 0 mps 687 mmHg 75%
    09:00 +14°C° 0 mm 1 mps 688 mmHg 68%
    10:00 +16°C° 0 mm 1 mps 688 mmHg 61%
    11:00 +19°C° 0 mm 1 mps 688 mmHg 54%
    12:00 +19°C° 0 mm 1 mps 688 mmHg 55%
    13:00 +19°C° 0 mm 1 mps 688 mmHg 55%
    14:00 +19°C° 0 mm 1 mps 687 mmHg 55%
    15:00 +18°C° 0 mm 1 mps 687 mmHg 58%
    16:00 +18°C° 0 mm 1 mps 687 mmHg 61%
    17:00 +15°C° 0 mm 0 mps 687 mmHg 64%
    18:00 +14°C° 0 mm 0 mps 687 mmHg 68%
    19:00 +14°C° 0 mm 1 mps 687 mmHg 73%
    20:00 +13°C° 0 mm 1 mps 687 mmHg 77%
    21:00 +13°C° 0.5 mm 1 mps 687 mmHg 82%
    22:00 +12°C° 0.5 mm 1 mps 687 mmHg 87%
    23:00 +11°C° 0.5 mm 0 mps 687 mmHg 93%

    26 September, Thursday

    Time Temperature Precipitation Wind Pressure Humidity
    00:00 +12°C° 0.7 mm 1 mps 686 mmHg 94%
    01:00 +12°C° 0.7 mm 1 mps 686 mmHg 95%
    02:00 +12°C° 0.7 mm 1 mps 686 mmHg 97%
    03:00 +11°C° 0.2 mm 1 mps 686 mmHg 97%
    04:00 +11°C° 0.2 mm 1 mps 686 mmHg 97%
    05:00 +11°C° 0.2 mm 1 mps 686 mmHg 97%
    06:00 +12°C° 0.1 mm 1 mps 687 mmHg 96%
    07:00 +12°C° 0.1 mm 1 mps 687 mmHg 96%
    08:00 +11°C° 0.1 mm 0 mps 687 mmHg 95%
    09:00 +13°C° 0 mm 0 mps 687 mmHg 89%
    10:00 +14°C° 0 mm 0 mps 688 mmHg 83%
    11:00 +15°C° 0 mm 0 mps 688 mmHg 76%
    12:00 +18°C° 0.1 mm 1 mps 688 mmHg 72%
    13:00 +18°C° 0.1 mm 1 mps 688 mmHg 67%
    14:00 +19°C° 0.1 mm 1 mps 687 mmHg 63%
    15:00 +18°C° 0.3 mm 1 mps 687 mmHg 68%
    16:00 +18°C° 0.3 mm 1 mps 687 mmHg 73%
    17:00 +16°C° 0.3 mm 1 mps 687 mmHg 78%
    18:00 +15°C° 0.4 mm 1 mps 687 mmHg 82%
    19:00 +14°C° 0.4 mm 1 mps 687 mmHg 87%
    20:00 +13°C° 0.4 mm 1 mps 687 mmHg 92%
    21:00 +13°C° 0.5 mm 1 mps 687 mmHg 93%
    22:00 +12°C° 0.5 mm 1 mps 687 mmHg 94%
    23:00 +12°C° 0.5 mm 1 mps 687 mmHg 96%

    27 September, Friday

    Time Temperature Precipitation Wind Pressure Humidity
    00:00 +12°C° 0.8 mm 1 mps 687 mmHg 96%
    01:00 +12°C° 0.8 mm 1 mps 688 mmHg 96%
    02:00 +12°C° 0.8 mm 1 mps 688 mmHg 97%
    03:00 +11°C° 0.3 mm 1 mps 688 mmHg 97%
    04:00 +11°C° 0.3 mm 1 mps 688 mmHg 97%
    05:00 +11°C° 0.3 mm 1 mps 689 mmHg 97%
    06:00 +11°C° 0.1 mm 1 mps 689 mmHg 96%
    07:00 +12°C° 0.1 mm 1 mps 689 mmHg 95%
    08:00 +12°C° 0.1 mm 1 mps 689 mmHg 94%
    09:00 +13°C° 0.1 mm 1 mps 690 mmHg 88%
    10:00 +14°C° 0.1 mm 1 mps 691 mmHg 83%
    11:00 +15°C° 0.1 mm 1 mps 691 mmHg 77%
    12:00 +15°C° 0.3 mm 1 mps 691 mmHg 76%
    13:00 +15°C° 0.3 mm 1 mps 691 mmHg 76%
    14:00 +15°C° 0.3 mm 1 mps 691 mmHg 75%
    15:00 +15°C° 0.1 mm 1 mps 691 mmHg 75%
    16:00 +15°C° 0.1 mm 1 mps 691 mmHg 75%
    17:00 +15°C° 0.1 mm 1 mps 691 mmHg 75%
    18:00 +13°C° 0 mm 1 mps 691 mmHg 80%
    19:00 +12°C° 0 mm 1 mps 691 mmHg 85%
    20:00 +9°C° 0 mm 0 mps 691 mmHg 90%
    21:00 +9°C° 0 mm 0 mps 691 mmHg 90%
    22:00 +8°C° 0 mm 0 mps 691 mmHg 90%
    23:00 +8°C° 0 mm 0 mps 691 mmHg 91%

    28 September, Saturday

    Time Temperature Precipitation Wind Pressure Humidity
    00:00 +8°C° 0 mm 0 mps 691 mmHg 91%
    01:00 +8°C° 0 mm 0 mps 691 mmHg 91%
    02:00 +7°C° 0 mm 0 mps 691 mmHg 91%
    03:00 +7°C° 0 mm 0 mps 691 mmHg 91%
    04:00 +7°C° 0 mm 0 mps 691 mmHg 91%
    05:00 +7°C° 0 mm 0 mps 691 mmHg 91%
    06:00 +8°C° 0 mm 0 mps 691 mmHg 87%
    07:00 +10°C° 0 mm 0 mps 691 mmHg 84%
    08:00 +11°C° 0 mm 0 mps 691 mmHg 81%
    09:00 +14°C° 0 mm 1 mps 692 mmHg 70%
    10:00 +18°C° 0 mm 1 mps 692 mmHg 60%
    11:00 +20°C° 0 mm 1 mps 692 mmHg 50%
    12:00 +21°C° 0 mm 1 mps 692 mmHg 47%
    13:00 +21°C° 0 mm 2 mps 692 mmHg 44%
    14:00 +21°C° 0 mm 2 mps 691 mmHg 41%
    15:00 +20°C° 0 mm 2 mps 691 mmHg 47%
    16:00 +20°C° 0 mm 1 mps 690 mmHg 53%
    17:00 +19°C° 0 mm 1 mps 690 mmHg 59%
    18:00 +16°C° 0 mm 1 mps 690 mmHg 63%
    19:00 +14°C° 0 mm 1 mps 689 mmHg 68%
    20:00 +13°C° 0 mm 1 mps 689 mmHg 72%
    21:00 +12°C° 0 mm 1 mps 689 mmHg 74%
    22:00 +12°C° 0 mm 1 mps 689 mmHg 76%
    23:00 +12°C° 0 mm 1 mps 689 mmHg 77%
    Show more